User: anonymous   Login
Location: Lango�lan
(48.1202°N, 3.2340°W)
Time: 09:16:11
(UTC+00:00)
Language:

Cosmos 1954 Rocket - Orbit

View from above orbital plane
View from above orbital plane
View from above satellite
View from above satellite

Ground track
Ground track

The orbit data is extracted from the following two-line orbital elements,

1 19257U 88053B   19343.19369889  .00000080  00000-0  35582-4 0  9996
2 19257  74.0489 352.6522 0020072  15.3167  56.8441 14.37450200648807
Epoch (UTC): 09 December 2019 04:38:55
Eccentricity: 0.0020072
inclination: 74.0489°
perigee height: 752 km
apogee height: 781 km
right ascension of ascending node: 352.6522°
argument of perigee: 15.3167°
revolutions per day: 14.37450200
mean anomaly at epoch: 56.8441°
orbit number at epoch: 64880

The dashed part of the orbit path shows where the satellite is in the earth's shadow,  

DLR